Location: Sabalos
(43.2860°N, 0.1414°E)
Time: 09:28:52
(UTC+00:00)

Cosmos 2219 Rocket - Pass Details

Date: 05 July 2020
Orbit: 827 x 847 km, 71.0° (Epoch: 05 August)

Event Time Altitude Azimuth Distance (km) Brightness Sun altitude
Exits shadow 20:30:51 - 159° (SSE) 2,766 4.3 -7.9°
Reaches altitude 10° 20:31:58 10° 152° (SSE) 2,424 4.0 -8.0°
Maximum altitude 20:36:15 23° 101° (ESE) 1,684 3.3 -8.6°
Drops below altitude 10° 20:40:33 10° 51° (NE) 2,443 4.5 -9.2°
Sets 20:43:26 0° 37° (NE) 3,385 5.4 -9.5°
